Location: Home
(42.5358°N, 72.7383°W)
Time: 09:34:00
(UTC-05:00)

Vanguard 2 Rocket - Pass Details

Date: 07 December 2021
Orbit: 553 x 3325 km, 32.9° (Epoch: 22 January)

Event Time Altitude Azimuth Distance (km) Brightness Sun altitude
Rises 16:04:30 0° 216° (SW) 2,811 11.0 1.2°
Reaches altitude 10° 16:07:07 10° 195° (SSW) 2,065 9.6 0.8°
Maximum altitude 16:10:20 18° 151° (SSE) 1,822 8.5 0.3°
Drops below altitude 10° 16:14:28 10° 109° (ESE) 2,756 9.0 -0.3°
Sets 16:18:42 0° 93° (E) 4,205 9.8 -1.0°
